Volver al catálogo

IRS 1C

ActivoCienciaSSO
NORAD 23751·PAYLOAD·🇮🇳 India

Lanzado Dec 28, 1995 desde Baikonur Cosmodrome

Loading…

Próximos Pases (próximas 24 horas)

TLE

ActualizadoSource: Space-Track

Época: Sep 14, 2026, 21:45 UTC

1 23751U 95072A   26257.90663384  .00000044  00000-0  39667-4 0  9995
2 23751  99.0200 279.2509 0001200  90.7159 269.4156 14.23585602594331

Sigue IRS 1C en tiempo real con AllMySat

Download on the App Store